www.pogodaiklimat.ru

Погода и климат >> Архив погоды >> Россия >> Свердловская область >> Ирбит


ПОГОДА в Ирбите

  • Прогноз погоды в Ирбите
  • Монитор погоды в Ирбите

АРХИВ ПОГОДЫ в Ирбите

Время (UTC), дата Ветер
(напр.,м/с)
 
Видим.   Явления Облачность Т
(С)
Тd
(С)
f
(%)
Тe
(С)
Тes
(С)
Комфортность P
(гПа)
Po
(гПа)
Тmin
(С)
Tmax
(С)
R
(мм)
R24
(мм)
S
(см)
06 9.06 СЗ 3 50 км 9/0
[Ac trans Ci sp]
+19.6 +1.1 29 +20 +29 1018.4 1009.6
09 9.06 СЗ 4 50 км 9/0
[Ac lent Ci sp]
+21.8 +1.7 26 +21 +27 комфорт 1017.2 1008.5
12 9.06 СЗ 3
{10}
50 км 8/3 600 м
[Cu med, cong Ac lent Ci]
+23.9 +6.7 33 +24 +27 комфорт 1015.7 1007.1
15 9.06 З 1 50 км 8/1 600 м
[Sc Ci]
+23.4 +9.7 42 +25 +26 комфорт 1014.3 1005.7 +24.3
18 9.06 ЮЗ 2 50 км 4/0
[Ci sp]
+18.0 +10.1 60 +19 +19 1014.0 1005.3
21 9.06 ЮЗ 3 50 км 3/0
[Ac trans]
+15.5 +10.3 71 +15 +15 1013.2 1004.4
00 10.06 ЮЗ 3 50 км 8/3 600 м
[Sc Ac trans Ci]
+16.2 +10.4 68 +16 +16 1012.0 1003.2
03 10.06 З 3 50 км 6/0
[Ac trans Ci fib]
+21.6 +12.2 55 +24 +27 комфорт 1011.6 1003.0 +15.2
06 10.06 З 3 50 км 3/0
[Ac cast Ci sp]
+25.5 +12.0 43 +27 +37 жарко 1011.4 1002.9
09 10.06 СЗ 3 50 км 6/5 600 м
[Sc Ci sp]
+27.3 +12.7 40 +29 +34 жарко 1011.1 1002.7
12 10.06 С 3 50 км 4/4 600 м
[Cb calv]
+27.9 +12.5 39 +29 +33 жарко 1011.2 1002.8
15 10.06 СЗ 1 50 км 4/1 600 м
[Sc Ci sp]
+27.4 +13.5 42 +29 +30 жарко 1011.0 1002.6 +28.2
18 10.06 Ю 2 20 км 3/3 600 м
[Cb calv Ac trans]
+20.2 +14.0 68 +23 +23 комфорт 1011.4 1002.8
21 10.06 ЮЗ 2 30 км 10/0
[Ci fib]
+18.2 +14.5 79 +19 +19 1010.9 1002.2
00 11.06 ЮЗ 2 20 км 5/3 600 м
[Cu med, cong Ci sp]
+17.8 +14.4 80 +18 +18 1010.1 1001.4
03 11.06 ЮЗ 2 20 км 9/1 600 м
[Sc Ac As Ci sp]
+20.1 +16.0 77 +23 +26 комфорт 1010.0 1001.4 +17.5
06 11.06 З 3 50 км {гроза} 9/6 600 м
[Cb calv Ac trans Ci sp]
+24.7 +15.8 58 +28 +31 душно 1009.2 1000.7
09 11.06 СЗ 3 50 км 8/8 600 м
[Cb calv Ci fib]
+27.0 +12.4 40 +28 +31 жарко 1008.3 999.9
12 11.06 СЗ 4 50 км 6/6 600 м
[Cb calv]
+27.1 +11.8 39 +28 +30 жарко 1007.4 999.0
15 11.06 З 3 50 км 6/4 600 м
[Cb calv Ac cast Ci fib]
+25.2 +10.6 40 +26 +27 жарко 1007.0 998.5 +27.3
18 11.06 ЮЗ 2 50 км 8/6 600 м
[Cb calv Ci sp]
+18.6 +11.2 62 +20 +20 1007.5 998.8
21 11.06 ЮЗ 1 50 км 8/8 600 м
[Cb calv]
+17.9 +12.8 72 +19 +19 1006.4 997.7
00 12.06 ЮЗ 2 50 км 8/6 600 м
[Cb calv Ac cast Ci sp]
+15.7 +12.0 79 +16 +16 1005.5 996.7
03 12.06 СЗ 4 50 км 3/3 600 м
[Sc Ac cast]
+18.8 +10.0 57 +19 +22 1004.9 996.2 +15.7
06 12.06 З 4-11
{11}
50 км 8/5 600 м
[Cu med, cong Ci ing]
+21.7 +9.3 45 +23 +27 комфорт 1004.1 995.6
09 12.06 З 5
{12}
50 км 8/4 600 м
[Cu med, cong Ci sp]
+22.6 +6.6 36 +23 +27 комфорт 1003.4 994.9
12 12.06 З 5-11
{14}
50 км 8/6 600 м
[Cu Sc Ac trans Ci fib]
+21.6 +4.3 32 +22 +23 комфорт 1002.8 994.2
15 12.06 ЮЗ 3
{14}
50 км {ливн. осадки} 9/8 600 м
[Sc Ac trans Ci sp]
+13.9 +10.5 80 +13 +13 1002.7 994.0 +23.1 1
18 12.06 З 3 50 км {ливн. осадки} 8/6 600 м
[Sc Ac trans Ci fib]
+12.4 +8.2 76 +11 +11 1001.6 992.8
21 12.06 З 3 50 км 8/5 600 м
[Sc Ac trans]
+10.6 +6.7 77 +9 +9 1002.9 994.0
00 13.06 СЗ 3 50 км {ливн. осадки} 8/8 600 м
[Sc Ac trans]
+8.6 +3.2 69 +6 +6 1004.6 995.6
03 13.06 СЗ 5-10
{10}
50 км 8/5 600 м
[Sc Ac trans]
+8.8 +2.5 65 +6 +6 1006.5 997.5 +8.4
06 13.06 С 5
{11}
50 км 10/9 600 м
[Sc Ac und]
+8.4 +1.8 63 +5 +5 1008.5 999.5 +7.7
09 13.06 СЗ 3
{10}
50 км 9/8 600 м
[Cb calv Ac trans Ci sp]
+10.8 +1.2 51 +9 +11 1008.9 999.9
12 13.06 СЗ 3
{13}
50 км {ливн. осадки} 9/8 600 м
[Cb calv Ac trans Ci sp]
+11.7 +1.8 51 +10 +11 1009.4 1000.4
15 13.06 СЗ 3 50 км 9/9 600 м
[Cb calv Ac trans]
+10.6 -0.1 47 +9 +9 1010.2 1001.2 +12.1
18 13.06 З 2 50 км 9/8 600 м
[Cb calv Ac trans]
+8.3 +1.4 62 +7 +7 1011.3 1002.2
21 13.06 З 2 50 км 4/0
[Ac trans Ci sp]
+4.9 +0.7 74 +2 +2 1011.7 1002.6
00 14.06 ЮЗ 2 50 км 6/0
[Ac lent Ci sp]
+3.2 +0.7 84 0 0 1011.1 1001.9
03 14.06 З 4 50 км 3/0
[Ac trans Ci]
+9.5 +1.8 59 +7 +10 1010.0 1001.0 +2.7
06 14.06 СЗ 6-11
{11}
50 км 8/6 600 м
[Cb calv Ac trans Ci fib]
+13.1 -1.2 37 +11 +13 1008.3 999.4
09 14.06 СЗ 4
{12}
50 км 8/8 600 м
[Sc diur, vesp]
+15.7 -1.4 31 +15 +17 1007.4 998.6
12 14.06 С 3
{11}
50 км 8/8 600 м
[Cb calv]
+14.9 -0.8 34 +14 +16 1007.5 998.7
15 14.06 СВ 2 50 км 3/3 600 м
[Sc Ac trans Ci fib]
+14.7 +1.1 40 +15 +15 1007.5 998.7 +16.2
18 14.06 В 3 50 км 4/4 600 м
[Sc]
+7.1 +3.1 76 +4 +4 1008.7 999.6
21 14.06 В 3 50 км 9/9 600 м
[Sc]
+6.3 +3.1 80 +3 +3 1008.8 999.7
00 15.06 СВ 2 50 км 8/8 600 м
[Sc]
+5.9 +3.2 83 +4 +4 1008.3 999.1
03 15.06 С 1 50 км 4/3 600 м
[Cb calv Ci fib]
+10.8 +4.1 63 +11 +15 1008.1 999.2 +5.4
06 15.06 З 1 50 км 6/3 600 м
[Cu med, cong Ac trans Ci sp]
+14.0 +3.9 51 +15 +23 1007.4 998.6
09 15.06 С 3 50 км 8/6 600 м
[Cu med, cong Ac trans Ci sp]
+15.0 +2.5 43 +14 +18 1007.1 998.3
12 15.06 СЗ 2 50 км 6/3 600 м
[Cu med, cong Ac trans Ci sp]
+17.1 -0.3 31 +18 +21 1006.4 997.7
15 15.06 СЗ 1 50 км 9/3 600 м
[Sc Ac trans Ci sp]
+16.6 +1.2 35 +18 +18 1005.9 997.2 +17.8
18 15.06 ЮЗ 1 50 км 9/3 600 м
[Sc Ac trans Ci sp]
+9.6 +3.7 67 +9 +9 1005.5 996.6
21 15.06 ЮЗ 2 50 км 8/6 600 м
[Sc Ac trans Ci sp]
+10.0 +3.0 62 +9 +9 1004.4 995.5
00 16.06 ЮЗ 2 50 км 9/6 600 м
[Sc Ac trans Ci sp]
+9.0 +3.6 69 +7 +8 1003.4 994.5

 

Местоположение метеостанции Ирбит (Свердловская область, Россия): широта 57.62 долгота 62.97 высота над уровнем моря 74 м.

В архиве по умолчанию представлена погода в Ирбите за последнюю неделю. Архивные данные за месяц целиком и за предыдущие месяцы, начиная с января 2011 года, Вы можете получить, выбрав интересующий диапазон дат из раскрывающегося списка и нажав кнопку "Ввод!".


*Определитесь, кто Вы:
робот инопланетянин человек

Внимание! Время в таблицах - всемирное. Для получения местного времени необходимо прибавить поправку, которая равна 5 ч.

Смотрите также архив погоды в соседних городах и на ближайших метеорологических станциях:

Погода в Туринске (Свердловская область, Россия) (64 км)
Погода в Артемовском (Свердловская область, Россия) (69 км)
Погода в Алапаевске (Свердловская область, Россия) (80 км)
Погода в Камышлове (Свердловская область, Россия) (87 км)
Погода в Бутке (Свердловская область, Россия) (111 км)
Погода в Тугулыме (Свердловская область, Россия) (119 км)
Погода в Таборах (Свердловская область, Россия) (135 км)
Погода в Тавде (Свердловская область, Россия) (145 км)
Погода в Каменск-Уральском (Свердловская область, Россия) (148 км)
Погода в Далматово (Курганская область, Россия) (150 км)

Пояснения к столбцам:

Ветер - указаны скорость ветра в м/с - средняя за 10 мин, порывы в срок и между сроками (в фигурных скобках) и направление, откуда дует ветер: С - северный, СВ - северо-восточный, В - восточный, ЮВ - юго-восточный, Ю - южный, ЮЗ - юго-западный, З - западный, СЗ - северо-западный.
Видимость - горизонтальная дальность видимости в метрах или километрах. При видимости от 1 до 10 км при отсутствии осадков обычно наблюдается дымка, при ухудшении видимости до 1 км и менее - туман. В сухую погоду видимость может ухудшаться дымом, пылью или мглою.
Явления - указаны атмосферные явления, наблюдавшиеся в срок или в последний час перед сроком; фигурными скобками обозначены явления, наблюдавшиеся между сроками (за 1-3 часа до срока); квадратными скобками обозначены град или гололедные отложения с указанием их диаметра в мм.
Облачность - указаны через наклонную черту общая и нижняя облачность в баллах и высота нижней границы облаков в метрах; квадратными скобками обозначены формы облаков: Ci - перистые, Cs - перисто-слоистые, Cc - перисто-кучевые, Ac - высококучевые, As - высокослоистые, Sc - слоисто-кучевые, Ns - слоисто-дождевые, Cu - кучевые, Cb - кучево-дождевые. Подробнее классификацию облаков см. в Атласе облаков (PDF).
T - Температура воздуха - температура, измеренная на высоте 2 м над землей.
Td - Температура точки росы - температура, при понижении до которой содержащийся в воздухе водяной пар достигнет насыщения.
f - Относительная влажность воздуха - влажноcть воздуха, измеренная на высоте 2 м над землей.
Te - Эффективная температура - температура, которую ощущает одетый по сезону человек в тени. Характеристика душности погоды. При расчете учитывается влияние влажности воздуха и скорости ветра на теплоощущения человека.
Tes - Эффективная температура на солнце - температура, которую ощущает человек, с поправкой на солнечный нагрев. Характеристика знойности погоды. Зависит от высоты солнца над горизонтом, облачности и скорости ветра. Ночью, в пасмурную погоду, а также при ветре 12 м/с и более поправка равна нулю.
P - Атмосферное давление - приведенное к уровню моря атмосферное давление.
Po - Атмосферное давление - измеренное на уровне метеостанции атмосферное давление.
Tmin - Минимальная температура - минимум температуры воздуха на высоте 2 м над землей.
Tmax - Максимальная температура - максимум температуры воздуха на высоте 2 м над землей.
R - Количество осадков - Количество выпавших осадков за период времени, мм. При наведении курсора мыши на число - период времени, за который выпало указанное количество осадков.
R24 - Количество осадков - Количество выпавших осадков за 24 часа, мм.
S - Снежный покров - Высота снежного покрова, см. При наведении курсора мыши на число - состояние снежного покрова и степень покрытия местности в баллах.